Hourly Data Report for May 01, 2017

CLYDE RIVER A
NUNAVUT

70°29'09.000" N
68°31'01.000" W
26.50 m
2400804
71090
YCY

Download Data

Hourly Data (May 2017)
Hourly Data Report for May 1, 2017
TIME
LST
Temp Definition
°C
Dew Point Definition
°C
Rel Hum Definition
%
Precip. Amount Definition
mm

Wind Dir Definition
10's deg

Wind Spd Definition
km/h
Visibility Definition
km
Stn Press Definition
kPa
Hmdx Definition


Wind Chill Definition


Weather Definition


00:00 -12.8 -14.3 89 0.0 32 39 0.6 100.69   -24 Moderate Snow
01:00 -12.8 -14.1 90 0.0 32 37 0.6 100.64   -24 Moderate Snow
02:00 -12.6 -14.1 89 0.0 32 35 1.2 100.67   -24 Snow
03:00 -12.6 -14.2 88 0.0 32 34 3.2 100.70   -23 Snow
04:00 -12.6 -14.2 88 0.0 31 35 3.2 100.65   -24 Snow
05:00 -12.5 -14.1 88 0.0 31 37 1.6 100.63   -24 Snow
06:00 -12.3 -13.9 88 0.0 32 39 1.2 100.60   -24 Snow
07:00 -12.0 -13.7 87 0.0 32 37 1.2 100.63   -23 Snow
08:00 -11.8 -13.7 86 0.0 31 43 1.0 100.60   -24 Snow,Blowing Snow
09:00 -11.6 -13.5 86 0.0 31 41 1.2 100.60   -23 Snow,Blowing Snow
10:00 -11.4 -13.2 87 0.0 31 48 0.8 100.52   -23 Moderate Snow,Blowing Snow
11:00 -11.1 -12.9 87 0.0 32 46 0.8 100.52   -23 Moderate Snow,Blowing Snow
12:00 -10.4 -12.7 84 0.0 32 39 1.2 100.55   -21 Snow
13:00 -10.2 -12.2 85 0.0 31 46 1.2 100.52   -22 Snow
14:00 -10.1 -12.3 84 0.0 32 46 2.0 100.52   -22 Snow
15:00 -9.9 -12.0 85 0.0 32 43 3.6 100.56   -21 Snow
16:00 -9.8 -11.8 85 0.0 32 39 6.4 100.56   -20 Snow
17:00 -9.7 -11.7 86 0.0 32 35 16.1 100.56   -20 Snow
18:00 -9.7 -11.5 87 0.0 31 34 16.1 100.56   -20 Snow
19:00 -9.6 -11.2 88 0.0 32 32 14.5 100.56   -19 Snow
20:00 -9.6 -11.2 88 0.0 32 34 16.1 100.54   -20 Snow
21:00 -9.5 -10.9 90 0.0 32 34 16.1 100.52   -19 Snow
22:00 -9.9 -11.2 90 0.0 33 26 3.2 100.50   -19 Snow
23:00 -9.9 -11.2 90 0.0 33 30 11.3 100.48   -19 Snow

Notes on Data Quality.

Legend

  • E = Estimated
  • M = Missing
  • NA = Not Available*
  • [empty] = Indicates an unobserved value
Date modified: